Location: Doln� Frauenhof
(49.5667°N, 14.8667°E)
Time: 04:24:53
(UTC+00:00)

Daily predictions for brighter satellites

Satellite Brightness Start Highest point End
(mag) Time Altitude Azimuth Time Altitude Azimuth Time Altitude Azimuth
NOSS 8 (E) 4.2 00:02:07 33° SW 00:03:22 72° NW 00:06:20 10° NE
Cosmos 1825 2.1 00:13:02 31° SSW 00:14:44 78° W 00:18:32 10° N
Cosmos 1076 Rocket 4.5 00:12:59 18° SSE 00:15:43 39° E 00:19:41 10° NNE
Cosmos 540 Rocket 3.6 00:15:11 24° S 00:18:15 66° ESE 00:23:20 10° NNE
Cosmos 1408 3.5 00:19:18 24° SW 00:20:57 37° WNW 00:24:25 10° N
NOSS 2-2 (E) 4.4 00:20:41 21° SSE 00:21:56 27° ESE 00:25:07 10° ENE
Cosmos 1437 3.6 00:20:05 10° N 00:22:44 37° ENE 00:24:28 18° SE
Cosmos 1242 Rocket 2.6 00:20:20 10° N 00:23:56 78° ENE 00:26:09 22° SSE
SL-16 R/B 3.5 00:20:08 10° WSW 00:25:16 34° NW 00:30:25 10° NNE
Cosmos 405 Rocket 3.0 00:23:36 27° SW 00:25:19 51° WNW 00:28:57 10° N
Cosmos 2221 2.5 00:21:31 10° NNW 00:25:49 74° W 00:28:23 23° S
Cosmos 1656 Rocket 3.8 00:20:20 10° NW 00:25:56 61° WSW 00:30:16 17° S
Cosmos 841 Rocket 3.6 00:23:03 22° S 00:26:18 66° ESE 00:31:25 10° NNE
Cosmos 2058 2.8 00:24:22 26° SSW 00:26:34 78° W 00:30:41 10° N
USA 229 DEB 3.8 00:22:36 16° SW 00:27:58 76° NW 00:34:57 10° NE
USA 229 3.7 00:22:42 16° SW 00:28:04 76° NW 00:35:03 10° NE
X-37B 1.1 00:28:47 34° SSW 00:29:09 35° S 00:32:06 10° ESE
Cosmos 1898 Rocket 4.1 00:28:28 10° NW 00:33:19 39° WSW 00:36:10 21° SSW
Cosmos 1937 Rocket 3.8 00:28:32 10° NNW 00:33:43 53° WSW 00:37:18 19° S
Nadezhda 4 Rocket 4.0 00:30:48 20° SSW 00:35:11 80° W 00:41:21 10° N
NOSS 2-2 (C) 4.3 00:34:05 20° SSE 00:35:35 28° ESE 00:38:45 10° ENE
Cosmos 2369 Rocket 3.0 00:30:45 10° NW 00:35:52 34° WSW 00:38:58 20° SSW
Meteor 2-15 4.5 00:29:50 10° N 00:36:01 87° ENE 00:41:34 13° S
NOSS 3-1 (C) 4.2 00:31:29 10° WSW 00:36:53 49° NW 00:43:22 10° NE
Aureole 3 Rocket 3.1 00:33:43 10° N 00:37:31 81° ENE 00:41:59 14° SSE
USA 307 3.8 00:38:07 22° S 00:40:02 33° SE 00:43:53 10° ENE
FALCON 9 DEB 3.6 00:37:49 10° WNW 00:40:55 56° NNE 00:44:00 10° E
CREW DRAGON DEMO-1 DEB 2.3 00:40:05 25° W 00:41:19 74° NNW 00:43:45 10° ENE
ARGOS Delta rocket 4.2 00:37:08 10° NNE 00:42:41 84° E 00:46:49 18° S
USA 215 4.1 00:37:36 10° ENE 00:43:52 51° NNW 00:50:08 10° W
NOSS 3-1 (A) 3.7 00:42:41 13° WSW 00:47:39 62° NW 00:54:13 10° NE
CZ-4 R/B 4.4 00:45:49 10° N 00:50:17 47° WNW 00:53:33 18° SW
ATLAS 5 CENTAUR R/B 2.1 00:48:04 20° S 00:50:25 41° ESE 00:54:35 10° NE
Helios 1B rocket 2.7 00:47:04 10° NNE 00:51:09 63° ESE 00:54:08 17° S
Cosmos 2298 Rocket 4.5 00:46:24 10° NNW 00:51:43 64° ENE 00:57:00 10° SE
ADEOS Rocket 3.5 00:48:19 10° SSE 00:55:31 73° ENE 01:02:03 10° NNW
Cosmos 1633 2.4 00:53:22 21° S 00:55:34 89° E 00:59:07 10° N
Cosmos 1814 Rocket 4.0 00:51:51 18° SSW 00:55:42 79° ESE 01:00:54 10° NNE
USA 308 3.5 00:53:26 21° SSW 00:55:53 42° SE 00:59:55 10° ENE
FALCON 9 DEB 2.9 00:54:55 10° WNW 00:58:01 78° NNE 01:01:06 10° ESE
UNK 3.7 00:54:25 15° S 00:58:14 68° WSW 01:02:53 10° NNW
CZ-3B R/B 3.0 00:50:32 10° WNW 00:58:36 55° N 01:01:27 10° E
Cosmos 1606 3.2 00:58:10 10° NNW 01:01:50 44° W 01:04:12 19° SSW
Helios 1A 4.3 01:00:06 17° SW 01:02:04 24° W 01:05:31 10° NW
Cosmos 2150 Rocket 4.2 00:58:07 10° NNW 01:03:20 73° ENE 01:08:35 10° SSE
FALCON 9 DEB 3.1 01:01:41 10° WNW 01:04:48 73° NNE 01:07:55 10° ESE
SL-16 R/B 2.6 00:59:52 12° S 01:05:34 60° WSW 01:11:42 10° NNW
Cosmos 1570 Rocket 4.0 01:01:44 17° SSW 01:05:47 88° WNW 01:11:04 10° NNE
Cosmos 1933 3.5 01:03:15 10° N 01:07:23 78° E 01:11:28 10° SSE
FALCON 9 DEB 2.8 01:05:09 10° WNW 01:08:16 85° NNE 01:11:22 10° ESE
Cosmos 372 Rocket 4.4 01:03:40 10° NW 01:08:39 45° WSW 01:13:11 12° S
Cosmos 1125 Rocket 3.8 01:06:10 10° NNW 01:11:26 71° ENE 01:16:42 10° SSE
USA 290 2.1 01:11:15 20° SSW 01:13:22 83° WNW 01:16:37 10° NNE
USA 305 3.1 01:10:31 17° SW 01:13:40 58° SSE 01:17:52 10° ENE
DELTA 2 DEB (DPAF) 4.4 01:09:45 10° SSE 01:14:10 69° ENE 01:18:37 10° N
Lacrosse 4 Rocket 1.5 01:11:16 10° NW 01:15:15 51° WSW 01:19:10 10° SSE
Meteor 1-28 Rocket 3.7 01:12:03 10° SSE 01:15:48 63° ENE 01:19:34 10° N
CZ-4C R/B 4.1 01:12:49 10° SSE 01:16:07 18° ESE 01:19:48 10° ENE
Cosmos 1092 Rocket 4.1 01:11:05 15° SSW 01:16:15 66° WNW 01:22:25 10° N
Cosmos 1151 Rocket 3.8 01:12:31 10° N 01:16:43 51° ENE 01:20:51 10° SSE
Cosmos 2098 Rocket 4.2 01:15:08 14° SW 01:19:08 36° WNW 01:23:11 10° N
CENTAUR R/B 4.1 01:11:58 10° NW 01:19:34 53° NE 01:28:06 10° ESE
Resurs 1-4 Rocket 2.4 01:14:36 10° N 01:19:50 59° WNW 01:24:23 14° SW
BREEZE-M R/B 3.2 01:18:12 16° SW 01:20:48 46° SSE 01:26:37 10° ENE
Cosmos 2208 Rocket 4.1 01:16:33 15° SSW 01:21:08 82° WNW 01:26:39 10° NNE
NOSS 5 (C) 4.3 01:18:33 10° NW 01:21:35 58° SW 01:25:12 10° SSE
Meteor 1-29 3.0 01:20:33 10° NNE 01:23:59 77° ESE 01:26:57 13° S
Cosmos 1766 Rocket 4.4 01:22:40 10° SSE 01:26:58 50° E 01:31:19 10° NNE
SL-4 R/B 1.9 01:23:41 10° WNW 01:27:23 72° NNE 01:30:52 10° E
MINOTAUR 4 R/B 4.3 01:26:32 11° S 01:29:46 51° W 01:33:15 10° NNW
Landsat 4 3.7 01:26:00 10° NNE 01:29:49 80° ESE 01:33:22 11° SSW
NPP 3.9 01:25:42 10° N 01:31:02 60° WNW 01:35:57 12° SSW
ADEOS II 2.1 01:26:15 10° NNE 01:31:33 89° E 01:36:49 10° SSW
NOSS 2-2 (D) 3.0 01:30:21 14° SW 01:33:13 82° NW 01:37:04 10° NE
USA 306 2.9 01:32:05 12° SW 01:36:03 76° SSE 01:40:18 10° ENE
Lacrosse 5 rocket 1.8 01:32:33 10° NW 01:36:05 55° NNE 01:39:42 10° ESE
Cosmos 921 Rocket 4.0 01:32:38 12° SW 01:36:10 34° WNW 01:40:01 10° N
Meteor 2-3 Rocket 3.7 01:31:28 10° SSW 01:37:05 85° W 01:42:42 10° N
FALCON 9 DEB 4.1 01:34:38 10° W 01:37:28 24° SW 01:40:17 10° SSE
Okean 3 Rocket 4.0 01:33:16 10° S 01:37:35 61° E 01:41:55 10° NNE
CZ-2D R/B 2.8 01:33:34 10° N 01:38:29 43° WNW 01:43:15 11° SW
Cosmos 1943 4.3 01:33:54 10° WSW 01:39:00 34° NW 01:44:10 10° NNE
IRIDIUM 106 4.3 01:34:37 10° N 01:39:52 78° W 01:45:04 10° S
Alouette 2 Rocket 3.2 01:36:51 10° NNW 01:40:26 88° ENE 01:44:29 10° SSE
ASTEX 1 3.6 01:40:54 10° SSE 01:45:49 76° E 01:50:45 10° N
IDEFIX/ARIANE 42P 2.9 01:40:43 10° NNE 01:45:58 68° ESE 01:51:10 10° S
Cosmos 2151 3.7 01:44:56 11° SW 01:48:41 40° WNW 01:52:41 10° N
AQUA 4.4 01:46:05 10° N 01:50:37 44° WNW 01:55:08 10° SW
EXPRESS MD2 4.2 01:44:00 10° WSW 01:52:32 79° SSE 01:56:37 10° E
Cosmos 2315 Rocket 4.5 01:55:50 10° N 02:02:01 66° ENE 02:08:11 10° SSE
DELTA 2 R/B (1) 4.5 01:59:07 10° WSW 02:03:49 28° S 02:08:30 10° SE
Cosmos 1656 3.8 01:58:21 10° NNW 02:04:06 86° ENE 02:09:48 10° SSE
CBERS-1 4.1 02:00:06 10° NNE 02:05:16 76° WNW 02:10:23 10° SSW
X-37B 1.9 02:02:49 10° WSW 02:05:21 22° SSW 02:07:52 10° SSE
IRS-1D 3.7 02:00:22 10° N 02:05:28 62° WNW 02:10:26 10° SSW
BREEZE-M DEB (TANK) 1.6 02:05:12 10° W 02:07:24 47° SSW 02:10:09 10° ESE
IRS-1C 4.4 02:04:16 10° NNE 02:09:38 72° ESE 02:14:56 10° S
Cosmos 1812 2.7 02:05:52 10° NNW 02:09:42 78° W 02:13:32 10° S
Cosmos 1553 Rocket 4.4 02:03:49 10° NNW 02:09:47 46° W 02:15:37 10° SSW
